カタログに戻る

COSMOS 1827

運用中ナビゲーションPO
NORAD 17582·PAYLOAD·🇷🇺 Russia

打ち上げ Mar 13, 1987 から Plesetsk Cosmodrome

Loading…

次のパス (今後24時間)

TLE

最新Source: Space-Track

元期: Sep 14, 2026, 22:34 UTC

1 17582U 87026A   26257.94094165  .00000035  00000-0  13087-3 0  9996
2 17582  82.5698 134.4813 0011695 316.4250  43.5919 12.65019730823996

AllMySatでCOSMOS 1827をリアルタイム追跡

Download on the App Store